Location: Twillingate Astronomical Observatory
(49.6173°N, 54.7580°W)
Time: 04:51:03
(UTC-02:-30)

Amateur Radio Satellites - All Passes

Search period start: 31 July 2015 04:21
Search period end: 01 August 2015 04:21
Location: Twillingate Astronomical Observatory, 49.6173°N, 54.7580°W

Satellite Date Start Highest point End Downlink Frequencies (MHz)
Time Altitude Azimuth
Oscar 19 31 Jul 04:29:51 04:33:34 20° 302° (WNW) 04:37:08 437.125/150
AIST 2 31 Jul 04:33:41 04:36:25 16° 337° (NNW) 04:39:04 435.215
AO-7 31 Jul 04:43:27 04:51:18 44° 98° (E) 04:59:10 29.400- 29.500
ISS 31 Jul 04:43:37 04:46:07 20° 218° (SW) 04:48:34 145.825
GONETS M04 31 Jul 04:48:40 04:52:41 15° 72° (ENE) 04:57:12
JAS-2 31 Jul 04:50:31 04:58:19 88° 286° (WNW) 05:06:11 435.910
DANDE 31 Jul 04:55:30 04:58:12 27° 98° (E) 05:00:37 436.750
MOZHAYETS 4 31 Jul 04:55:50 05:00:28 68° 258° (WSW) 05:05:08
Cosmos 2504 31 Jul 05:03:49 05:10:25 36° 295° (WNW) 05:17:24 435.465 / 435.565
HORYU 2 31 Jul 05:08:17 05:12:48 66° 102° (ESE) 05:17:18 437.375
STRAND 1 31 Jul 05:09:46 05:10:38 11° 50° (NE) 05:11:45 437.568
CUBESAT XI-V 31 Jul 05:10:18 05:13:47 22° 62° (ENE) 05:17:21 437.345
Gurwin Techsat 1B 31 Jul 05:17:30 05:21:40 23° 301° (WNW) 05:25:44 435.225
CUSAT 1 31 Jul 05:25:20 05:28:06 56° 283° (WNW) 05:30:41 437.405
BEESAT 3 31 Jul 05:34:55 05:35:24 10° 8° (N) 05:35:55 437.485
ITAMSAT 1 31 Jul 05:48:20 05:51:23 16° 306° (NW) 05:54:16 435.822/435.867
Cubesat XI-IV 31 Jul 06:09:33 06:12:09 14° 84° (E) 06:14:59 437.490
AIST 2 31 Jul 06:16:01 06:16:40 10° 1° (N) 06:17:19 435.215
RS-15 31 Jul 06:29:28 06:41:10 81° 47° (NE) 06:53:23 29.354- 29.394
BEESAT 2 31 Jul 06:30:09 06:32:12 13° 19° (NNE) 06:34:19 435.950
AO-7 31 Jul 06:36:18 06:44:23 55° 300° (WNW) 06:52:22 29.400- 29.500
JAS-2 31 Jul 06:36:24 06:42:32 26° 306° (NW) 06:48:36 435.910
GONETS M04 31 Jul 06:39:22 06:47:54 65° 93° (E) 06:56:29
DANDE 31 Jul 06:40:04 06:41:22 12° 292° (WNW) 06:42:32 436.750
STRAND 1 31 Jul 06:43:51 06:48:50 53° 69° (ENE) 06:53:52 437.568
HORYU 2 31 Jul 06:45:52 06:49:00 18° 300° (WNW) 06:52:02 437.375
CUBESAT XI-V 31 Jul 06:46:15 06:50:54 57° 260° (W) 06:55:31 437.345
PRISM 31 Jul 06:49:45 06:53:46 46° 70° (ENE) 06:57:48 437.425
CUTE-I 31 Jul 07:04:20 07:09:18 39° 96° (E) 07:14:16 437.470
BEESAT 3 31 Jul 07:11:34 07:14:47 22° 32° (NNE) 07:18:01 437.485
Cosmos 2499 31 Jul 07:20:08 07:26:13 29° 82° (E) 07:32:51 435.465 / 435.565
BRITE-PL 31 Jul 07:35:38 07:36:16 10° 85° (E) 07:37:09 437.365/2234.400
Cubesat XI-IV 31 Jul 07:47:47 07:53:10 86° 102° (ESE) 07:58:31 437.490
M-CUBED/EXP-1 PRIME 31 Jul 07:49:59 07:52:19 15° 50° (NE) 07:54:51 437.505
AIST 2 31 Jul 07:54:06 07:56:54 17° 24° (NNE) 07:59:43 435.215
BEESAT 2 31 Jul 08:07:25 08:11:19 41° 42° (NE) 08:15:11 435.950
AUBIESAT-1 31 Jul 08:19:27 08:22:41 22° 55° (NE) 08:26:10 437.475
STRAND 1 31 Jul 08:24:08 08:28:23 25° 268° (W) 08:32:33 437.568
PRISM 31 Jul 08:26:15 08:29:28 20° 268° (W) 08:32:35 437.425
AO-7 31 Jul 08:30:16 08:35:32 18° 323° (NW) 08:40:34 29.400- 29.500
GONETS M04 31 Jul 08:37:32 08:45:26 36° 297° (WNW) 08:53:13
RS-15 31 Jul 08:42:26 08:52:52 38° 251° (WSW) 09:03:23 29.354- 29.394
CUTE-I 31 Jul 08:44:30 08:49:23 36° 296° (WNW) 08:54:11 437.470
SEEDS 31 Jul 08:47:26 08:49:32 14° 86° (E) 08:51:48 437.485
CUTE 1.7 + AOD 2 31 Jul 08:47:49 08:50:34 17° 88° (E) 08:53:27 437.475
BEESAT 3 31 Jul 08:49:06 08:53:11 76° 233° (SW) 08:57:11 437.485
CANX-2 31 Jul 08:55:35 08:58:56 22° 91° (E) 09:02:20 2200.000
TIGRISAT 31 Jul 09:06:23 09:07:53 12° 55° (NE) 09:09:35 435.000
ANTELSAT 31 Jul 09:07:21 09:09:07 13° 56° (NE) 09:11:05 437.575/2403.000
BRITE-PL 31 Jul 09:11:13 09:15:32 86° 103° (ESE) 09:20:06 437.365/2234.400
Cosmos 2499 31 Jul 09:11:16 09:18:43 69° 284° (WNW) 09:26:49 435.465 / 435.565
PCSat 31 Jul 09:16:21 09:20:32 24° 110° (ESE) 09:24:52 145.827
AAUSAT CUBESAT 2 31 Jul 09:16:22 09:19:14 18° 89° (E) 09:22:13 437.432
M-CUBED/EXP-1 PRIME 31 Jul 09:22:18 09:26:23 87° 69° (ENE) 09:30:53 437.505
DOVE 4 31 Jul 09:22:26 09:26:47 45° 99° (E) 09:31:22 437.250
GOMX 1 31 Jul 09:28:05 09:32:31 78° 103° (ESE) 09:37:14 467.674
Cubesat XI-IV 31 Jul 09:29:01 09:32:41 19° 304° (NW) 09:36:12 437.490
AIST 2 31 Jul 09:32:05 09:36:18 62° 47° (NE) 09:40:25 435.215
HO-68 31 Jul 09:32:14 09:39:10 50° 99° (E) 09:46:08 435.675
CINEMA 3 31 Jul 09:40:38 09:44:50 34° 95° (E) 09:49:13 145.822/145.860
BEESAT 2 31 Jul 09:45:40 09:49:16 30° 241° (WSW) 09:52:46 435.950
ZACube-1 31 Jul 09:46:44 09:48:36 13° 85° (E) 09:50:42 437.345
AUBIESAT-1 31 Jul 09:53:00 09:57:02 54° 255° (WSW) 10:01:25 437.475
UNISAT 6 31 Jul 09:56:20 10:00:11 31° 66° (ENE) 10:04:10 437.425
POLYITAN 1 31 Jul 10:06:18 10:09:04 18° 61° (ENE) 10:11:57 437.675
UWE-3 31 Jul 10:06:35 10:10:18 25° 92° (E) 10:14:09 435.000/436.395/437.385
YUBILEINY 31 Jul 10:06:43 10:13:10 22° 53° (NE) 10:19:52 435.215
FUNcube-1 31 Jul 10:07:55 10:11:09 20° 90° (E) 10:14:32 145.935
COMPASS 1 31 Jul 10:08:28 10:12:43 68° 101° (E) 10:16:56 437.405
SO-50 31 Jul 10:09:24 10:13:51 40° 120° (ESE) 10:18:28 436.795
CUBEBUG 2 31 Jul 10:19:18 10:23:38 39° 97° (E) 10:28:03 437.445
O/OREOS (USA 219) 31 Jul 10:19:18 10:22:37 20° 44° (NE) 10:26:01 437.305
SEEDS 31 Jul 10:21:36 10:25:54 73° 286° (WNW) 10:30:08 437.485
Oscar 11 31 Jul 10:22:21 10:26:27 38° 97° (E) 10:30:33 145.826/435.025
CUTE 1.7 + AOD 2 31 Jul 10:22:39 10:26:54 59° 288° (WNW) 10:31:08 437.475
POPSAT HIP 1 31 Jul 10:23:09 10:26:30 24° 64° (ENE) 10:29:55 437.405
QB50P2 31 Jul 10:30:13 10:33:49 28° 66° (ENE) 10:37:29 145.880/145.840
CANX-2 31 Jul 10:30:57 10:35:06 45° 290° (WNW) 10:39:11 2200.000
BUGSAT 1 31 Jul 10:33:47 10:36:41 20° 63° (ENE) 10:39:39 437.445
TIGRISAT 31 Jul 10:39:33 10:43:53 76° 75° (ENE) 10:48:22 435.000
ANTELSAT 31 Jul 10:40:49 10:45:11 81° 75° (ENE) 10:49:42 437.575/2403.000
HUMSAT D 31 Jul 10:42:06 10:45:05 18° 89° (E) 10:48:11 437.325/437.525
DELFI C3 31 Jul 10:45:02 10:48:58 44° 98° (E) 10:52:52 145.870
DX 1 31 Jul 10:50:56 10:53:25 15° 88° (E) 10:56:03 434.975-435.025
AAUSAT CUBESAT 2 31 Jul 10:51:04 10:55:11 52° 289° (WNW) 10:59:16 437.432
Cosmos 2491 31 Jul 10:51:23 10:54:35 13° 70° (ENE) 10:58:21 435.465 / 435.565
BRITE-PL 31 Jul 10:51:27 10:53:36 13° 301° (WNW) 10:55:39 437.365/2234.400
DUCHIFAT 1 31 Jul 10:55:36 10:59:36 46° 70° (ENE) 11:03:38 145.980
QB50P1 31 Jul 10:57:56 11:01:59 50° 71° (ENE) 11:06:06 145.935-145.965
PCSat 31 Jul 10:58:09 11:03:33 68° 309° (NW) 11:09:00 145.827
NANOSAT C BR1 31 Jul 10:59:36 11:03:40 51° 71° (ENE) 11:07:47 145.865
M-CUBED/EXP-1 PRIME 31 Jul 11:00:19 11:02:00 12° 271° (W) 11:03:31 437.505
DOVE 4 31 Jul 11:00:40 11:04:23 25° 295° (WNW) 11:08:11 437.250
VELOX 1 31 Jul 11:01:43 11:03:21 12° 86° (E) 11:05:12 145.980
GOMX 1 31 Jul 11:07:36 11:10:15 15° 300° (WNW) 11:12:50 467.674
Cosmos 2499 31 Jul 11:08:48 11:13:53 18° 311° (NW) 11:18:55 435.465 / 435.565
ESTCUBE 1 31 Jul 11:09:35 11:10:29 11° 84° (E) 11:11:37 437.505/2401.250
AIST 2 31 Jul 11:11:24 11:14:30 19° 245° (WSW) 11:17:26 435.215
CINEMA 3 31 Jul 11:17:52 11:22:02 34° 292° (WNW) 11:26:18 145.822/145.860
HO-68 31 Jul 11:20:11 11:26:52 42° 300° (WNW) 11:33:28 435.675
ZACube-1 31 Jul 11:21:06 11:25:38 87° 285° (WNW) 11:30:14 437.345
UNISAT 6 31 Jul 11:32:59 11:36:57 33° 265° (W) 11:40:59 437.425
POLYITAN 1 31 Jul 11:40:26 11:44:35 60° 259° (W) 11:48:46 437.675
UWE-3 31 Jul 11:42:41 11:47:02 45° 290° (WNW) 11:51:26 435.000/436.395/437.385
FUNcube-1 31 Jul 11:43:24 11:47:50 56° 289° (WNW) 11:52:18 145.935
COMPASS 1 31 Jul 11:45:14 11:47:55 16° 300° (WNW) 11:50:29 437.405
AIST 1 31 Jul 11:48:11 11:51:12 19° 87° (E) 11:54:18
SO-50 31 Jul 11:49:48 11:54:25 42° 321° (NW) 11:59:09 436.795
CUBEBUG 2 31 Jul 11:56:14 12:00:12 29° 294° (WNW) 12:04:13 437.445
AISAT 31 Jul 11:56:54 12:01:06 41° 98° (E) 12:05:17 437.250
O/OREOS (USA 219) 31 Jul 11:58:01 12:02:37 75° 246° (WSW) 12:07:11 437.305
POPSAT HIP 1 31 Jul 11:58:13 12:02:11 41° 262° (W) 12:06:11 437.405
Oscar 11 31 Jul 11:58:48 12:02:30 27° 295° (WNW) 12:06:08 145.826/435.025
UKube-1 31 Jul 11:59:22 12:03:40 63° 102° (ESE) 12:07:57 .
SEEDS 31 Jul 11:59:51 12:00:58 11° 304° (NW) 12:01:53 437.485
YUBILEINY 31 Jul 12:02:51 12:11:44 80° 78° (ENE) 12:20:36 435.215
QB50P2 31 Jul 12:05:48 12:09:39 33° 264° (W) 12:13:30 145.880/145.840
BUGSAT 1 31 Jul 12:07:57 12:11:53 48° 260° (W) 12:15:49 437.445
CUBEBUG 1 31 Jul 12:14:29 12:18:30 37° 97° (E) 12:22:32 437.445
HUMSAT D 31 Jul 12:16:56 12:21:10 54° 288° (WNW) 12:25:24 437.325/437.525
TIGRISAT 31 Jul 12:19:00 12:21:18 14° 274° (W) 12:23:27 435.000
50 SAT 31 Jul 12:20:14 12:24:16 86° 105° (ESE) 12:28:15 437.505
ANTELSAT 31 Jul 12:20:34 12:22:41 13° 275° (W) 12:24:37 437.575/2403.000
DELFI C3 31 Jul 12:20:39 12:23:47 21° 296° (WNW) 12:26:49 145.870
DX 1 31 Jul 12:25:51 12:30:11 67° 288° (WNW) 12:34:29 434.975-435.025
DUCHIFAT 1 31 Jul 12:32:28 12:35:39 20° 269° (W) 12:38:46 145.980
Oscar 19 31 Jul 12:32:38 12:36:54 28° 62° (ENE) 12:41:16 437.125/150
QB50P1 31 Jul 12:35:08 12:38:11 19° 270° (W) 12:41:08 145.935-145.965
VELOX 1 31 Jul 12:36:10 12:40:36 86° 286° (WNW) 12:45:01 145.980
NANOSAT C BR1 31 Jul 12:36:51 12:39:51 18° 270° (W) 12:42:45 145.865
Cosmos 2491 31 Jul 12:41:11 12:49:40 59° 92° (E) 12:58:13 435.465 / 435.565
ESTCUBE 1 31 Jul 12:43:39 12:48:11 83° 104° (ESE) 12:52:41 437.505/2401.250
PCSat 31 Jul 12:43:56 12:48:00 21° 332° (NNW) 12:52:01 145.827
Cosmos 2504 31 Jul 12:50:59 12:57:45 28° 60° (ENE) 13:04:55 435.465 / 435.565
SPROUT 31 Jul 12:54:33 12:58:23 31° 95° (E) 13:02:14 437.525
ZACube-1 31 Jul 12:59:03 13:01:23 14° 302° (WNW) 13:03:35 437.345
HO-68 31 Jul 13:10:08 13:12:53 12° 322° (NW) 13:15:22 435.675
TISAT 1 31 Jul 13:10:29 13:14:07 28° 94° (E) 13:17:49 437.305
Gurwin Techsat 1B 31 Jul 13:23:41 13:28:03 27° 61° (ENE) 13:32:29 435.225
AIST 1 31 Jul 13:24:17 13:28:32 49° 285° (WNW) 13:32:46
JAS-2 31 Jul 13:25:14 13:29:15 18° 47° (NE) 13:33:46 435.910
SO-50 31 Jul 13:32:57 13:36:13 17° 344° (NNW) 13:39:29 436.795
AISAT 31 Jul 13:33:49 13:37:30 26° 296° (WNW) 13:41:06 437.250
UKube-1 31 Jul 13:36:25 13:39:24 18° 300° (WNW) 13:42:16 .
SWISSCUBE 31 Jul 13:40:25 13:42:34 13° 85° (E) 13:44:56 437.505
ITAMSAT 1 31 Jul 13:50:53 13:55:40 39° 65° (ENE) 14:00:31 435.822/435.867
CUBEBUG 1 31 Jul 13:51:04 13:54:46 27° 295° (WNW) 13:58:24 437.445
50 SAT 31 Jul 13:56:34 13:58:16 12° 301° (WNW) 13:59:50 437.505
AO-7 31 Jul 13:57:03 14:03:27 26° 46° (NE) 14:10:01 29.400- 29.500
ITUPSAT 1 31 Jul 14:00:06 14:03:21 18° 89° (E) 14:06:43 437.325
YUBILEINY 31 Jul 14:00:39 14:07:46 27° 280° (W) 14:14:36 435.215
DX 1 31 Jul 14:04:53 14:05:40 10° 306° (NW) 14:06:16 434.975-435.025
Oscar 19 31 Jul 14:11:06 14:16:03 49° 261° (W) 14:21:03 437.125/150
CUSAT 1 31 Jul 14:12:54 14:14:37 13° 66° (ENE) 14:16:41 437.405
VELOX 1 31 Jul 14:14:25 14:16:31 13° 303° (WNW) 14:18:28 145.980
ESTCUBE 1 31 Jul 14:21:52 14:24:29 15° 302° (WNW) 14:26:58 437.505/2401.250
SPROUT 31 Jul 14:30:37 14:34:28 31° 293° (WNW) 14:38:15 437.525
PCSat 31 Jul 14:31:21 14:33:35 12° 358° (N) 14:35:47 145.827
HORYU 2 31 Jul 14:36:21 14:38:56 16° 58° (ENE) 14:41:41 437.375
Cosmos 2491 31 Jul 14:38:54 14:47:02 39° 295° (WNW) 14:55:04 435.465 / 435.565
Cosmos 2504 31 Jul 14:42:41 14:51:01 84° 263° (W) 14:59:40 435.465 / 435.565
TISAT 1 31 Jul 14:46:07 14:49:56 33° 293° (WNW) 14:53:43 437.305
GONETS M04 31 Jul 14:49:56 14:51:57 11° 37° (NE) 14:54:27
BEESAT 31 Jul 14:55:58 15:00:41 57° 100° (E) 15:05:24 436.000
Gurwin Techsat 1B 31 Jul 15:02:32 15:07:45 55° 260° (W) 15:13:01 435.225
JAS-2 31 Jul 15:06:54 15:13:02 68° 70° (ENE) 15:20:05 435.910
SO-50 31 Jul 15:15:46 15:18:38 15° 8° (N) 15:21:31 436.795
SWISSCUBE 31 Jul 15:16:22 15:21:12 88° 279° (W) 15:25:59 437.505
DANDE 31 Jul 15:27:30 15:30:40 37° 75° (ENE) 15:34:44 436.750
ITAMSAT 1 31 Jul 15:30:26 15:35:14 35° 264° (W) 15:40:00 435.822/435.867
ITUPSAT 1 31 Jul 15:36:59 15:41:45 65° 288° (WNW) 15:46:28 437.325
STARS 31 Jul 15:38:21 15:41:25 19° 90° (E) 15:44:37 437.465
AO-7 31 Jul 15:46:52 15:55:14 82° 68° (ENE) 16:03:39 29.400- 29.500
CUSAT 1 31 Jul 15:53:34 15:57:20 72° 259° (W) 16:02:20 437.405
KKS-1 31 Jul 16:02:13 16:06:33 48° 99° (E) 16:10:53 437.445
HORYU 2 31 Jul 16:10:34 16:15:02 80° 256° (WSW) 16:19:33 437.375
PCSat 31 Jul 16:15:34 16:19:14 18° 24° (NNE) 16:22:57 145.827
BEESAT 31 Jul 16:34:28 16:38:13 22° 299° (WNW) 16:41:50 436.000
Cosmos 2504 31 Jul 16:36:16 16:42:14 21° 282° (WNW) 16:48:00 435.465 / 435.565
GONETS M04 31 Jul 16:44:02 16:52:08 41° 66° (ENE) 17:00:18
Cosmos 2491 31 Jul 16:45:23 16:47:19 11° 324° (NW) 16:48:47 435.465 / 435.565
MOZHAYETS 4 31 Jul 16:47:11 16:50:43 22° 90° (E) 16:54:20
CUTE-I 31 Jul 16:52:55 16:56:25 18° 56° (NE) 17:00:03 437.470
JAS-2 31 Jul 16:53:41 16:58:53 26° 274° (W) 17:04:30 435.910
SWISSCUBE 31 Jul 16:55:39 16:58:25 15° 304° (NW) 17:01:00 437.505
SO-50 31 Jul 16:56:22 17:00:42 29° 32° (NNE) 17:05:03 436.795
Cosmos 2499 31 Jul 17:04:05 17:09:20 18° 49° (NE) 17:15:04 435.465 / 435.565
DANDE 31 Jul 17:11:11 17:13:43 18° 264° (W) 17:16:34 436.750
STARS 31 Jul 17:13:54 17:18:15 55° 289° (WNW) 17:22:34 437.465
ITUPSAT 1 31 Jul 17:17:08 17:18:48 11° 307° (NW) 17:20:16 437.325
Cubesat XI-IV 31 Jul 17:34:59 17:39:49 36° 64° (ENE) 17:44:43 437.490
KKS-1 31 Jul 17:39:23 17:42:55 23° 298° (WNW) 17:46:24 437.445
AO-7 31 Jul 17:42:06 17:49:03 27° 270° (W) 17:55:47 29.400- 29.500
HORYU 2 31 Jul 17:52:10 17:52:33 10° 276° (W) 17:52:40 437.375
PCSat 31 Jul 17:58:34 18:03:54 54° 47° (NE) 18:09:14 145.827
HO-68 31 Jul 18:21:38 18:25:37 16° 44° (NE) 18:29:50 435.675
MOZHAYETS 4 31 Jul 18:23:45 18:28:16 51° 290° (WNW) 18:32:44
CUTE-I 31 Jul 18:30:29 18:35:53 88° 252° (WSW) 18:41:18 437.470
SO-50 31 Jul 18:36:45 18:41:43 71° 233° (SW) 18:46:36 436.795
CUBESAT XI-V 31 Jul 18:38:51 18:42:42 26° 92° (E) 18:46:36 437.345
GONETS M04 31 Jul 18:40:55 18:49:22 56° 269° (W) 18:57:46
BRITE-PL 31 Jul 18:49:51 18:52:56 20° 64° (ENE) 18:56:03 437.365/2234.400
STRAND 1 31 Jul 18:51:50 18:53:51 12° 84° (E) 18:56:07 437.568
Cosmos 2499 31 Jul 18:56:04 19:04:39 62° 74° (ENE) 19:13:28 435.465 / 435.565
GOMX 1 31 Jul 19:04:52 19:07:32 17° 61° (ENE) 19:10:18 467.674
Cubesat XI-IV 31 Jul 19:14:51 19:19:55 40° 263° (W) 19:24:57 437.490
COMPASS 1 31 Jul 19:31:20 19:32:43 12° 57° (ENE) 19:34:17 437.405
PCSat 31 Jul 19:42:22 19:47:08 31° 247° (WSW) 19:51:48 145.827
SEEDS 31 Jul 19:43:32 19:46:23 18° 61° (ENE) 19:49:21 437.485
CUTE 1.7 + AOD 2 31 Jul 19:44:46 19:48:03 22° 63° (ENE) 19:51:24 437.475
CANX-2 31 Jul 19:52:36 19:56:15 28° 66° (ENE) 19:59:57 2200.000
VERMONT LUNAR 31 Jul 19:53:15 19:54:28 12° 165° (SSE) 19:55:42 437.305
PRISM 31 Jul 20:02:54 20:06:48 40° 98° (E) 20:10:41 437.425
HO-68 31 Jul 20:05:06 20:12:02 58° 65° (ENE) 20:19:03 435.675
AAUSAT CUBESAT 2 31 Jul 20:11:12 20:14:28 23° 64° (ENE) 20:17:48 437.432
CUTE-I 31 Jul 20:13:49 20:16:51 15° 275° (W) 20:19:38 437.470
CUBESAT XI-V 31 Jul 20:15:58 20:20:20 42° 292° (WNW) 20:24:38 437.345
SO-50 31 Jul 20:19:27 20:21:29 12° 251° (WSW) 20:23:14 436.795
BRITE-PL 31 Jul 20:27:01 20:31:16 49° 261° (W) 20:35:21 437.365/2234.400
STRAND 1 31 Jul 20:28:50 20:33:59 82° 104° (ESE) 20:39:06 437.568
DOVE 4 31 Jul 20:32:45 20:36:53 72° 74° (ENE) 20:41:03 437.250
GONETS M04 31 Jul 20:41:09 20:44:22 12° 291° (WNW) 20:46:59
GOMX 1 31 Jul 20:41:11 20:45:21 58° 259° (W) 20:49:28 467.674
ZACube-1 31 Jul 20:46:54 20:49:36 17° 60° (ENE) 20:52:26 437.345
CINEMA 3 31 Jul 20:46:57 20:50:56 47° 70° (ENE) 20:55:03 145.822/145.860
Cosmos 2499 31 Jul 20:49:44 20:57:31 38° 275° (W) 21:05:19 435.465 / 435.565
RS-15 31 Jul 21:00:45 21:09:20 29° 105° (ESE) 21:18:31 29.354- 29.394
COMPASS 1 31 Jul 21:03:29 21:07:43 81° 77° (ENE) 21:11:59 437.405
FUNcube-1 31 Jul 21:08:00 21:11:26 25° 64° (ENE) 21:14:59 145.935
UWE-3 31 Jul 21:08:06 21:11:49 31° 66° (ENE) 21:15:40 435.000/436.395/437.385
SEEDS 31 Jul 21:17:34 21:21:46 60° 259° (W) 21:26:02 437.485
CUTE 1.7 + AOD 2 31 Jul 21:19:32 21:23:41 47° 261° (W) 21:27:52 437.475
Oscar 11 31 Jul 21:21:05 21:25:18 51° 71° (ENE) 21:29:34 145.826/435.025
CUBEBUG 2 31 Jul 21:21:55 21:25:59 52° 71° (ENE) 21:30:12 437.445
UKube-1 31 Jul 21:24:49 21:26:55 14° 57° (ENE) 21:29:11 .
ISS 31 Jul 21:26:30 21:27:56 13° 137° (SE) 21:29:28 145.825
AISAT 31 Jul 21:26:49 21:27:12 10° 54° (NE) 21:27:46 437.250
CANX-2 31 Jul 21:28:06 21:32:04 36° 264° (W) 21:36:03 2200.000
VERMONT LUNAR 31 Jul 21:28:23 21:30:28 16° 181° (S) 21:32:33 437.305
PHONESAT 2.4 31 Jul 21:33:19 21:34:53 13° 162° (SSE) 21:36:29 2401.200-2431.200
DELFI C3 31 Jul 21:36:03 21:39:58 49° 71° (ENE) 21:43:57 145.870
50 SAT 31 Jul 21:36:43 21:37:48 11° 58° (ENE) 21:39:04 437.505
HUMSAT D 31 Jul 21:38:03 21:41:18 23° 64° (ENE) 21:44:40 437.325/437.525
PRISM 31 Jul 21:38:43 21:42:04 24° 296° (WNW) 21:45:20 437.425
AAUSAT CUBESAT 2 31 Jul 21:45:47 21:49:49 44° 262° (W) 21:53:54 437.432
DX 1 31 Jul 21:50:22 21:53:50 24° 63° (ENE) 21:57:22 434.975-435.025
HO-68 31 Jul 21:53:42 22:00:10 35° 266° (W) 22:06:34 435.675
VELOX 1 31 Jul 22:02:52 22:06:02 20° 61° (ENE) 22:09:19 145.980
STRAND 1 31 Jul 22:09:08 22:12:38 18° 303° (WNW) 22:15:59 437.568
ESTCUBE 1 31 Jul 22:12:19 22:15:25 19° 60° (ENE) 22:18:38 437.505/2401.250
DOVE 4 31 Jul 22:13:21 22:15:17 13° 274° (W) 22:17:02 437.250
ZACube-1 31 Jul 22:21:19 22:25:30 65° 259° (W) 22:29:49 437.345
CINEMA 3 31 Jul 22:25:23 22:28:29 20° 270° (W) 22:31:32 145.822/145.860
TIGRISAT 31 Jul 22:28:24 22:30:25 13° 85° (E) 22:32:39 435.000
ANTELSAT 31 Jul 22:29:42 22:32:01 14° 86° (E) 22:34:33 437.575/2403.000
M-CUBED/EXP-1 PRIME 31 Jul 22:33:34 22:38:05 38° 102° (ESE) 22:42:31 437.505
COMPASS 1 31 Jul 22:42:14 22:44:02 12° 275° (W) 22:45:39 437.405
FUNcube-1 31 Jul 22:43:36 22:47:35 40° 263° (W) 22:51:39 145.935
UWE-3 31 Jul 22:44:36 22:48:22 30° 266° (W) 22:52:11 435.000/436.395/437.385
Cosmos 2491 31 Jul 22:45:57 22:53:51 37° 64° (ENE) 23:01:50 435.465 / 435.565
UKube-1 31 Jul 22:58:08 23:02:28 87° 255° (WSW) 23:06:49 .
Oscar 11 31 Jul 22:58:35 23:01:49 20° 270° (W) 23:04:57 145.826/435.025
AISAT 31 Jul 22:58:37 23:02:59 65° 72° (ENE) 23:07:22 437.250
CUBEBUG 2 31 Jul 23:00:04 23:03:04 18° 271° (W) 23:06:01 437.445
ISS 31 Jul 23:00:39 23:03:51 57° 155° (SSE) 23:07:04 145.825
AUBIESAT-1 31 Jul 23:03:24 23:08:09 62° 107° (ESE) 23:12:48 437.475
VERMONT LUNAR 31 Jul 23:05:36 23:06:28 11° 197° (SSW) 23:07:17 437.305
50 SAT 31 Jul 23:07:52 23:11:46 87° 76° (ENE) 23:15:44 437.505
RS-15 31 Jul 23:09:25 23:20:24 90° 131° (SE) 23:31:56 29.354- 29.394
PHONESAT 2.4 31 Jul 23:09:34 23:12:06 19° 179° (S) 23:14:37 2401.200-2431.200
DELFI C3 31 Jul 23:12:26 23:15:21 18° 270° (W) 23:18:10 145.870
HUMSAT D 31 Jul 23:12:51 23:16:49 43° 262° (W) 23:20:52 437.325/437.525
CUBEBUG 1 31 Jul 23:14:35 23:18:49 53° 71° (ENE) 23:23:05 437.445
YUBILEINY 31 Jul 23:16:30 23:21:51 19° 75° (ENE) 23:27:37 435.215
UNISAT 6 31 Jul 23:19:46 23:24:09 38° 96° (E) 23:28:34 437.425
POLYITAN 1 31 Jul 23:22:16 23:24:59 17° 89° (E) 23:27:51 437.675
DX 1 31 Jul 23:25:43 23:29:53 43° 261° (W) 23:34:03 434.975-435.025
AIST 1 31 Jul 23:26:42 23:30:57 63° 77° (ENE) 23:35:10
VELOX 1 31 Jul 23:37:55 23:42:15 56° 259° (W) 23:46:37 145.980
POPSAT HIP 1 31 Jul 23:39:03 23:42:29 23° 92° (E) 23:45:58 437.405
BEESAT 2 31 Jul 23:43:43 23:46:21 17° 114° (ESE) 23:49:06 435.950
BUGSAT 1 31 Jul 23:46:21 23:49:02 17° 90° (E) 23:51:51 437.445
QB50P2 31 Jul 23:46:25 23:50:07 28° 94° (E) 23:53:51 145.880/145.840
ESTCUBE 1 31 Jul 23:47:22 23:51:53 65° 258° (WSW) 23:56:25 437.505/2401.250
SPROUT 31 Jul 23:52:43 23:56:44 41° 69° (ENE) 00:00:47 437.525
TIGRISAT 01 Aug 00:03:11 00:07:53 89° 284° (WNW) 00:12:36 435.000
ANTELSAT 01 Aug 00:04:46 00:09:29 84° 283° (WNW) 00:14:12 437.575/2403.000
TISAT 1 01 Aug 00:06:37 00:10:27 37° 68° (ENE) 00:14:21 437.305
M-CUBED/EXP-1 PRIME 01 Aug 00:08:23 00:12:46 35° 300° (WNW) 00:17:04 437.505
DUCHIFAT 1 01 Aug 00:11:19 00:15:25 46° 99° (E) 00:19:31 145.980
QB50P1 01 Aug 00:14:10 00:18:20 51° 100° (E) 00:22:31 145.935-145.965
NANOSAT C BR1 01 Aug 00:15:36 00:19:46 52° 100° (E) 00:23:57 145.865
BEESAT 3 01 Aug 00:22:46 00:26:40 47° 123° (ESE) 00:30:38 437.485
BEESAT 01 Aug 00:31:01 00:34:05 18° 58° (ENE) 00:37:17 436.000
ISS 01 Aug 00:37:04 00:40:18 60° 353° (N) 00:43:33 145.825
AISAT 01 Aug 00:37:14 00:40:03 16° 271° (W) 00:42:44 437.250
UKube-1 01 Aug 00:38:12 00:39:22 11° 275° (W) 00:40:16 .
AUBIESAT-1 01 Aug 00:38:41 00:42:28 23° 305° (NW) 00:46:08 437.475
Cosmos 2491 01 Aug 00:42:44 00:51:18 62° 267° (W) 00:59:48 435.465 / 435.565
PHONESAT 2.4 01 Aug 00:47:27 00:49:20 14° 196° (SSW) 00:51:11 2401.200-2431.200
SWISSCUBE 01 Aug 00:50:27 00:54:23 26° 62° (ENE) 00:58:24 437.505
CUBEBUG 1 01 Aug 00:52:22 00:55:31 19° 270° (W) 00:58:35 437.445
UNISAT 6 01 Aug 00:56:43 01:00:49 30° 295° (WNW) 01:04:55 437.425
POLYITAN 1 01 Aug 00:57:05 01:01:19 59° 288° (WNW) 01:05:32 437.675
AIST 1 01 Aug 01:05:42 01:08:09 15° 275° (W) 01:10:25
YUBILEINY 01 Aug 01:08:40 01:17:21 78° 96° (E) 01:26:08 435.215
ITUPSAT 1 01 Aug 01:10:43 01:15:03 35° 65° (ENE) 01:19:26 437.325
AIST 2 01 Aug 01:12:18 01:16:01 30° 119° (ESE) 01:19:48 435.215
POPSAT HIP 1 01 Aug 01:14:30 01:18:31 41° 291° (WNW) 01:22:32 437.405
BEESAT 2 01 Aug 01:19:51 01:23:58 69° 313° (NW) 01:28:06 435.950
BUGSAT 1 01 Aug 01:20:53 01:24:51 52° 289° (WNW) 01:28:48 437.445
QB50P2 01 Aug 01:22:10 01:26:03 34° 293° (WNW) 01:29:54 145.880/145.840
RS-15 01 Aug 01:23:46 01:34:20 44° 339° (NNW) 01:45:19 29.354- 29.394
SPROUT 01 Aug 01:29:32 01:33:00 23° 268° (W) 01:36:24 437.525
KKS-1 01 Aug 01:31:21 01:32:53 12° 55° (NE) 01:34:35 437.445
Cosmos 2504 01 Aug 01:31:26 01:34:35 14° 72° (ENE) 01:38:15 435.465 / 435.565
TIGRISAT 01 Aug 01:41:22 01:44:01 15° 302° (WNW) 01:46:31 435.000
TISAT 1 01 Aug 01:42:50 01:46:20 25° 267° (W) 01:49:47 437.305
ANTELSAT 01 Aug 01:43:07 01:45:36 14° 303° (WNW) 01:47:55 437.575/2403.000
DUCHIFAT 1 01 Aug 01:47:40 01:50:59 22° 297° (WNW) 01:54:12 145.980
QB50P1 01 Aug 01:50:43 01:53:54 20° 298° (WNW) 01:57:00 145.935-145.965
NANOSAT C BR1 01 Aug 01:52:09 01:55:17 20° 298° (WNW) 01:58:21 145.865
BEESAT 3 01 Aug 02:01:08 02:04:47 29° 323° (NW) 02:08:25 437.485
BEESAT 01 Aug 02:06:36 02:11:24 78° 257° (WSW) 02:16:15 436.000
ISS 01 Aug 02:13:39 02:16:55 76° 14° (NNE) 02:20:12 145.825
O/OREOS (USA 219) 01 Aug 02:14:28 02:18:49 54° 112° (ESE) 02:23:16 437.305
Oscar 19 01 Aug 02:17:56 02:22:51 42° 97° (E) 02:27:47 437.125/150
SWISSCUBE 01 Aug 02:27:22 02:32:01 48° 261° (W) 02:36:41 437.505
STARS 01 Aug 02:39:11 02:42:55 29° 65° (ENE) 02:46:44 437.465
Cosmos 2491 01 Aug 02:42:18 02:46:28 14° 289° (WNW) 02:50:05 435.465 / 435.565
ITUPSAT 1 01 Aug 02:48:32 02:52:57 35° 264° (W) 02:57:21 437.325
AIST 2 01 Aug 02:50:24 02:54:29 43° 318° (NW) 02:58:35 435.215
BEESAT 2 01 Aug 02:59:53 03:02:44 18° 333° (NNW) 03:05:33 435.950
KKS-1 01 Aug 03:04:24 03:08:48 76° 74° (ENE) 03:13:16 437.445
YUBILEINY 01 Aug 03:07:47 03:15:16 30° 301° (WNW) 03:22:38 435.215
Gurwin Techsat 1B 01 Aug 03:14:11 03:19:14 43° 97° (E) 03:24:18 435.225
Cosmos 2504 01 Aug 03:18:10 03:25:15 67° 94° (E) 03:32:57 435.465 / 435.565
ITAMSAT 1 01 Aug 03:38:09 03:43:18 60° 101° (E) 03:48:25 435.822/435.867
RS-15 01 Aug 03:39:37 03:50:07 40° 12° (NNE) 04:01:07 29.354- 29.394
BEESAT 3 01 Aug 03:42:31 03:43:58 11° 346° (NNW) 03:45:23 437.485
AO-7 01 Aug 03:44:45 03:50:20 20° 85° (E) 03:56:15 29.400- 29.500
BEESAT 01 Aug 03:48:43 03:50:10 11° 276° (W) 03:51:20 436.000
ISS 01 Aug 03:50:14 03:53:11 32° 213° (SSW) 03:56:08 145.825
MOZHAYETS 4 01 Aug 03:53:03 03:57:13 34° 66° (ENE) 04:01:26
O/OREOS (USA 219) 01 Aug 03:54:54 03:58:36 24° 312° (NW) 04:02:17 437.305
JAS-2 01 Aug 03:55:41 04:03:10 48° 96° (E) 04:10:42 435.910
Oscar 19 01 Aug 03:57:32 04:02:07 32° 296° (WNW) 04:06:41 437.125/150
HORYU 2 01 Aug 03:58:39 04:01:10 15° 87° (E) 04:03:52 437.375
